Weather reports worldwide

Advertisment
A12-CPP, Netherlands (6205): temperature & dewpoint: 10.12.2019 14:00:00 - 16.12.2019 14:00:00 (CET)A12-CPP, Netherlands (6205): wind speed & gusts: 10.12.2019 14:00:00 - 16.12.2019 14:00:00 (CET)A12-CPP, Netherlands (6205): wind direction: 10.12.2019 14:00:00 - 16.12.2019 14:00:00 (CET)A12-CPP, Netherlands (6205): reduced air pressure: 10.12.2019 14:00:00 - 16.12.2019 14:00:00 (CET)A12-CPP, Netherlands (6205): visibility: 10.12.2019 14:00:00 - 16.12.2019 14:00:00 (CET)
Date & Time tt [°C] td [°C] ff [km/h] ff [kn] fx [km/h] fx [kn] dd ppp [hPa] vv [km]
16.12.2019 14:00:00 7,9 3,2 63 34 68 37 SW 996,3 10
16.12.2019 13:00:00 8,2 4,8 63 34 68 37 SW 996,1 10
16.12.2019 12:00:00 8,1 5,2 57 31 58 31 SW 996,4 10
16.12.2019 11:00:00 8,0 5,0 59 32 58 31 SW 996,6 10
16.12.2019 10:00:00 8,0 5,1 52 28 54 29 SW 996,2 10
16.12.2019 09:00:00 7,9 4,6 54 29 58 31 SW 995,8 10
16.12.2019 08:00:00 8,0 4,7 61 33 65 35 SW 995,1 10
16.12.2019 07:00:00 8,1 5,3 55 30 61 33 SW 994,5 10
16.12.2019 06:00:00 8,3 5,2 61 33 61 33 SW 994,4 10
16.12.2019 05:00:00 8,2 5,7 55 30 65 35 SW 994,4 10
16.12.2019 04:00:00 8,3 5,9 57 31 65 35 SW 994,8 10
16.12.2019 03:00:00 8,5 5,8 50 27 50 27 S 994,9 10
16.12.2019 02:00:00 8,4 5,4 48 26 58 31 SSW 995,2 10
16.12.2019 01:00:00 8,2 5,1 48 26 54 29 SW 995,5 10
16.12.2019 00:00:00 8,0 4,1 48 26 54 29 SW 995,6 10
15.12.2019 23:00:00 7,8 4,0 39 21 47 25 SW 995,9 10
15.12.2019 22:00:00 7,2 2,8 44 24 47 25 SW 995,6 10
15.12.2019 21:00:00 7,0 1,8 48 26 54 29 WSW 995,0 10
15.12.2019 20:00:00 7,0 1,8 52 28 50 27 WSW 994,4 10
15.12.2019 19:00:00 6,8 2,2 48 26 54 29 WSW 993,3 10
15.12.2019 18:00:00 6,8 1,4 57 31 54 29 WSW 992,6 10
15.12.2019 17:00:00 6,7 2,2 54 29 58 31 WSW 991,6 10
15.12.2019 16:00:00 7,0 2,4 50 27 54 29 W 990,4 10
15.12.2019 15:00:00 6,8 2,0 59 32 61 33 WSW 989,4 10
15.12.2019 14:00:00 7,0 2,2 55 30 61 33 W 988,1 10
15.12.2019 13:00:00 7,3 2,3 65 35 65 35 W 986,5 10
15.12.2019 12:00:00 7,2 2,5 52 28 54 29 WNW 984,7 10
15.12.2019 11:00:00 6,0 3,7 46 25 54 29 NW 982,5 10
15.12.2019 10:00:00 5,3 3,4 42 23 58 31 W 979,2 10
15.12.2019 09:00:00 6,1 3,3 61 33 61 33 WSW 978,2 10
15.12.2019 08:00:00 5,6 3,6 13 7 65 35 S 977,9 5
15.12.2019 07:00:00 5,3 3,8 9 5 25 14 - 978,1 10
15.12.2019 06:00:00 4,1 2,9 28 15 32 18 - 978,7 9
15.12.2019 05:00:00 3,6 2,4 31 17 40 21 SE 980,0 10
15.12.2019 04:00:00 3,5 1,6 39 21 40 21 SSE 982,1 10
15.12.2019 03:00:00 4,4 2,5 46 25 61 33 - 983,6 6
15.12.2019 02:00:00 6,1 2,1 52 28 58 31 SW 984,0 7
15.12.2019 01:00:00 7,6 1,8 61 33 61 33 SW 984,7 10
15.12.2019 00:00:00 7,5 1,3 65 35 72 39 WSW 984,8 10
14.12.2019 23:00:00 7,1 1,6 68 37 68 37 WSW 984,7 10
14.12.2019 22:00:00 7,4 2,0 67 36 68 37 WSW 984,3 10
14.12.2019 21:00:00 6,7 2,1 70 38 72 39 WSW 984,2 10
14.12.2019 20:00:00 7,2 2,0 63 34 68 37 W 983,1 10
14.12.2019 19:00:00 7,4 1,4 70 38 68 37 W 981,9 10
14.12.2019 18:00:00 6,1 2,3 65 35 76 41 W 981,4 10
14.12.2019 17:00:00 7,4 2,1 68 37 76 41 WSW 979,9 10
14.12.2019 16:00:00 6,4 2,6 57 31 76 41 WNW 979,0 7
14.12.2019 15:00:00 7,3 3,6 57 31 65 35 W 978,6 10
14.12.2019 14:00:00 6,9 3,7 63 34 65 35 WSW 977,6 10
14.12.2019 13:00:00 6,6 3,0 55 30 65 35 W 977,2 10
14.12.2019 12:00:00 6,9 3,8 55 30 65 35 W 976,5 10
14.12.2019 11:00:00 6,4 3,8 59 32 58 31 W 975,8 10
14.12.2019 10:00:00 6,9 4,1 31 17 40 21 WNW 974,9 10
14.12.2019 09:00:00 6,6 4,2 28 15 36 19 W 974,1 8
14.12.2019 08:00:00 6,2 3,4 29 16 32 18 W 973,4 10
14.12.2019 07:00:00 7,0 4,5 24 13 32 18 WSW 973,0 10
14.12.2019 06:00:00 6,6 4,1 15 8 29 16 WNW 972,9 10
14.12.2019 05:00:00 7,1 3,2 39 21 43 23 WSW 972,9 10
14.12.2019 04:00:00 7,7 4,7 24 13 25 14 SW 973,0 10
14.12.2019 03:00:00 7,1 4,7 21 11 29 16 SW 973,4 10
14.12.2019 02:00:00 6,9 3,9 24 13 43 23 SW 973,8 10
14.12.2019 01:00:00 8,1 4,3 26 14 29 16 SW 974,0 10
14.12.2019 00:00:00 7,5 5,1 21 11 29 16 SSW 974,6 10
13.12.2019 23:00:00 8,1 5,2 22 12 25 14 S 974,8 10
13.12.2019 22:00:00 8,0 5,3 24 13 25 14 SSW 975,0 10
13.12.2019 21:00:00 8,0 5,0 26 14 29 16 S 975,5 10
13.12.2019 20:00:00 7,8 4,7 18 10 32 18 SSW 975,9 50
13.12.2019 19:00:00 8,1 3,4 26 14 32 18 SW 976,0 10
13.12.2019 18:00:00 7,9 5,0 22 12 32 18 S 976,0 10
13.12.2019 17:00:00 8,1 4,7 29 16 32 18 SW 976,0 10
13.12.2019 16:00:00 8,2 4,8 16 9 18 10 S 975,6 10
13.12.2019 15:00:00 8,2 5,4 21 11 40 21 S 975,1 10
13.12.2019 14:00:00 7,5 6,4 42 23 50 27 SSE 974,6 10
13.12.2019 13:00:00 7,4 6,5 50 27 50 27 SSE 974,4 10
13.12.2019 12:00:00 7,3 6,5 42 23 47 25 SSE 974,0 10
13.12.2019 11:00:00 7,3 6,1 44 24 50 27 SSE 973,5 10
13.12.2019 10:00:00 7,6 6,8 39 21 47 25 SSE 972,7 8
13.12.2019 09:00:00 8,4 7,2 29 16 43 23 S 971,6 10
13.12.2019 08:00:00 7,9 7,3 61 33 76 41 SSE 970,1 10
13.12.2019 07:00:00 6,4 5,1 76 41 79 43 SE 969,3 6
13.12.2019 06:00:00 6,1 4,3 76 41 76 41 SSE 970,0 6
13.12.2019 05:00:00 6,2 3,9 74 40 72 39 SSE 970,7 7
13.12.2019 04:00:00 6,1 4,3 72 39 72 39 SSE 971,6 3,8
13.12.2019 03:00:00 6,0 4,9 70 38 76 41 SSE 972,4 5
13.12.2019 02:00:00 6,4 5,2 61 33 72 39 SSE 973,4 3,0
13.12.2019 01:00:00 6,6 5,3 68 37 72 39 SSE 974,6 10
13.12.2019 00:00:00 6,5 4,8 74 40 72 39 SSE 976,0 6
12.12.2019 23:00:00 6,7 4,9 70 38 76 41 SSE 977,4 4,0
12.12.2019 22:00:00 6,6 4,9 72 39 72 39 SSE 978,9 7
12.12.2019 21:00:00 6,7 4,2 68 37 72 39 SSE 980,8 4,6
12.12.2019 20:00:00 7,3 4,3 67 36 65 35 SSE 982,2 10
12.12.2019 19:00:00 7,7 3,5 59 32 58 31 SSE 983,5 10
12.12.2019 18:00:00 7,3 3,5 50 27 58 31 S 985,4 10
12.12.2019 17:00:00 7,5 1,5 41 22 43 23 S 987,1 10
12.12.2019 16:00:00 6,8 1,7 42 23 40 21 S 988,3 10
12.12.2019 15:00:00 6,5 0,7 41 22 43 23 S 989,4 10
12.12.2019 14:00:00 6,6 0,5 42 23 43 23 S 990,2 10
12.12.2019 13:00:00 6,5 1,5 42 23 47 25 SW 991,6 10
12.12.2019 12:00:00 7,0 1,3 44 24 47 25 SW 992,3 10
12.12.2019 11:00:00 7,0 1,5 46 25 43 23 SW 993,2 10
12.12.2019 10:00:00 6,9 1,9 42 23 43 23 SW 993,6 10
12.12.2019 09:00:00 6,8 1,6 37 20 40 21 SW 993,9 10
12.12.2019 08:00:00 6,9 1,7 39 21 40 21 SW 994,0 10
12.12.2019 07:00:00 6,9 1,7 35 19 40 21 WSW 994,4 10
12.12.2019 06:00:00 6,9 1,7 34 18 36 19 WSW 994,7 10
12.12.2019 05:00:00 7,0 1,3 34 18 32 18 W 995,1 10
12.12.2019 04:00:00 6,1 2,2 29 16 43 23 WSW 995,5 10
12.12.2019 03:00:00 6,6 3,5 31 17 32 18 WSW 995,7 10
12.12.2019 02:00:00 6,3 4,0 22 12 29 16 SSW 995,9 10
12.12.2019 01:00:00 6,5 3,6 31 17 43 23 SW 996,5 10
12.12.2019 00:00:00 6,3 3,6 39 21 43 23 SW 996,9 10
11.12.2019 23:00:00 7,3 3,7 41 22 47 25 SW 997,2 10
11.12.2019 22:00:00 7,9 4,5 41 22 47 25 SW 997,3 10
11.12.2019 21:00:00 7,8 4,3 42 23 47 25 SW 997,5 10
11.12.2019 20:00:00 7,3 2,7 37 20 47 25 SSW 997,8 10
11.12.2019 19:00:00 7,9 4,2 50 27 50 27 SW 998,2 10
11.12.2019 18:00:00 7,8 4,7 48 26 50 27 SW 998,4 10
11.12.2019 17:00:00 7,7 4,3 50 27 54 29 SW 998,2 10
11.12.2019 16:00:00 7,7 4,3 44 24 50 27 SW 998,5 10
11.12.2019 15:00:00 7,9 4,3 52 28 54 29 SW 998,9 10
11.12.2019 14:00:00 7,9 4,1 52 28 54 29 SW 999,1 10
11.12.2019 13:00:00 8,0 4,5 48 26 50 27 SW 999,7 10
11.12.2019 12:00:00 8,0 4,5 50 27 50 27 SW 1000,2 10
11.12.2019 11:00:00 7,9 4,4 48 26 47 25 SW 1000,7 10
11.12.2019 10:00:00 7,9 4,0 - - - - - 1000,8 -
11.12.2019 09:00:00 8,0 2,7 52 28 50 27 WSW 1000,9 10
11.12.2019 08:00:00 8,1 3,6 54 29 58 31 WSW 1000,6 10
11.12.2019 07:00:00 8,4 3,3 55 30 58 31 WSW 1000,5 10
11.12.2019 06:00:00 8,4 3,8 57 31 61 33 WSW 999,9 10
11.12.2019 05:00:00 8,4 2,9 59 32 61 33 W 999,4 10
11.12.2019 04:00:00 8,5 3,0 57 31 65 35 WSW 999,4 10
11.12.2019 03:00:00 8,6 3,9 57 31 65 35 W 998,6 10
11.12.2019 02:00:00 8,7 4,0 57 31 68 37 WSW 997,6 10
11.12.2019 01:00:00 8,7 4,6 61 33 65 35 W 997,2 10
11.12.2019 00:00:00 8,9 6,9 59 32 68 37 W 996,0 4,7
10.12.2019 23:00:00 9,9 7,7 85 46 94 51 SW 994,0 5
10.12.2019 22:00:00 10,1 8,7 78 42 90 49 SSW 992,8 7
10.12.2019 21:00:00 9,9 8,3 80 43 94 51 S 994,0 8
10.12.2019 20:00:00 10,1 8,2 81 44 90 49 S 994,8 8
10.12.2019 19:00:00 9,8 8,0 85 46 97 53 S 996,2 9
10.12.2019 18:00:00 9,4 7,9 81 44 94 51 S 997,6 9
10.12.2019 17:00:00 8,1 7,6 83 45 86 47 S 999,4 3,8
10.12.2019 16:00:00 8,6 7,0 80 43 86 47 S 1001,5 2,5
10.12.2019 15:00:00 8,9 6,3 80 43 86 47 S 1003,4 10
10.12.2019 14:00:00 8,8 5,4 72 39 79 43 S 1005,3 10

tt = temperature
td = dewpoint
ff = wind speed
fx = gusts
dd = wind direction
ppp = reduced air pressure
vv = visibility

Next stations